Meteo Giornale » Osservazioni meteo Italia » Bergamo-Orio Al Serio

ore: 00:20 - Osservazioni Meteo Bergamo-Orio Al Serio
Lat. 45° 40' N Lon. 9° 42' E Alt. 238 metri s.l.m.

sereno

23 °C

Sereno

Temp. 24 Ore

20 °C

31 °C

Nord

1.8 Km/h

Dew point 17 °C

Umidità 68 %

Visibilità  10 Km

Il sole sorge alle ore 06:42

Il sole tramonta alle ore 19:59

Data e Ora Cielo e Fenomeni T °C DP °C Um. % Pres. hPa Vis. km Vento km/h
Oggi h: 00:20 sereno Sereno 23 17 68 1015 10 N 1.8
Ieri h: 23:50 sereno Sereno 24 17 64 1015 10 N 3.7
Ieri h: 23:20 sereno Sereno 24 17 64 1014 10 N 9.3
Ieri h: 22:50 sereno Sereno 25 17 61 1014 10 N 11.1
Ieri h: 22:20 sereno Sereno 25 17 61 1014 10 N 7.4
Ieri h: 21:50 sereno Sereno 25 17 61 1014 10 N/NE 7.4
Ieri h: 21:20 sereno Sereno 26 17 57 1014 10 N 7.4
Ieri h: 20:50 sereno Sereno 27 17 54 1013 10 N 7.4
Ieri h: 20:20 sereno Sereno 29 16 45 1013 10 SO 7.4
Ieri h: 19:50 sereno Sereno 30 16 42 1013 10 S/SO 7.4
Ieri h: 19:20 sereno Sereno 30 16 42 1013 10 SO 9.3
Ieri h: 18:50 sereno Sereno 30 16 42 1013 10 SO 9.3
Ieri h: 17:50 sereno Sereno 31 16 40 1013 10 SO 9.3
Ieri h: 17:20 sereno Sereno 31 16 40 1014 10 SO 11.1
Ieri h: 16:50 sereno Sereno 31 17 43 1014 10 SO 13
Ieri h: 09:20 sereno Sereno 25 17 61 1015 10 N 1.8
Ieri h: 08:50 sereno Sereno 23 17 68 1015 10 N 3.7
Ieri h: 08:20 sereno Sereno 22 16 68 1015 10 N 5.5
Ieri h: 07:50 sereno Sereno 21 16 73 1015 10 N 5.5
Ieri h: 07:20 sereno Sereno 20 16 77 1015 10 N 5.5
Ieri h: 06:50 sereno Sereno 20 16 77 1015 10 N 1.8
Ieri h: 06:20 sereno Sereno 21 16 73 1015 10 N 5.5
Ieri h: 05:50 sereno Sereno 21 16 73 1015 10 N 5.5
Ieri h: 05:20 sereno Sereno 21 16 73 1015 10 N 5.5
Ieri h: 04:50 sereno Sereno 22 16 68 1015 10 N/NE 7.4
Ieri h: 04:20 sereno Sereno 22 16 68 1015 10 N 9.3
Ieri h: 03:50 sereno Sereno 22 16 68 1015 10 N/NE 7.4
Ieri h: 03:20 sereno Sereno 22 16 68 1015 10 N 9.3
Ieri h: 02:50 sereno Sereno 22 16 68 1015 10 N/NE 7.4
Ieri h: 02:20 sereno Sereno 23 16 64 1015 10 N/NE 9.3
Ieri h: 01:50 sereno Sereno 22 17 73 1015 10 N/NE 9.3
Ieri h: 01:20 sereno Sereno 22 17 73 1015 10 N/NE 9.3
Ieri h: 00:50 sereno Sereno 22 17 73 1016 10 N/NE 7.4